[[{"header":{"parameterUnit":"m.s-1","parameterCategory":1,"la1":30.2991,"la2":30.254,"lo1":-89.0895,"lo2":-89.0444,"dy":0.0017,"dx":0.0017,"nx":28,"ny":28,"refTime":"2025-03-14T21:00:00:Z","depth":0,"parameterNumber":2,"parameterNumberName":"U-component_of_WINDS"},"data":[0,0,0,0,0,0,0,0,0,0,0,0,0,0,0,0,0,0,0,0,0,0,0,0,0,0,0,0,0,0,0,0,0,0,0,0,0,0,0,0,0,0,0,0,0,0,0,0,0,0,0,0,0,0,0,0,0,0,5.9755,5.9755,0,5.9781,5.9781,5.9781,5.9764,5.9763,5.9762,5.9761,5.9788,5.9789,5.979,0,0,0,0,0,0,0,0,0,0,0,0,0,5.9691,5.9692,5.9755,5.9755,5.9755,5.978,5.9781,5.9781,5.9764,5.9763,5.9762,5.9761,5.9787,5.9789,5.9791,0,0,0,0,0,0,0,0,0,0,0,0,0,5.9718,5.9692,5.9754,5.975,5.9749,5.978,5.9781,5.9781,5.9764,5.9763,5.9762,5.976,5.9787,5.9789,5.9791,5.9828,0,0,5.9797,5.9798,0,0,0,0,0,0,0,0,5.9716,5.972,5.975,5.975,5.975,5.9768,5.9768,5.9797,5.9764,5.9758,5.9761,5.976,5.9782,5.9784,5.9792,5.9829,5.983,5.9798,5.9799,5.98,5.98,0,0,0,0,0,0,0,5.9714,5.9719,5.9765,5.975,5.975,5.9746,5.9749,5.9773,5.9777,5.9759,5.9758,5.9761,5.9782,5.979,5.9792,5.9831,5.9798,5.98,5.9801,5.9802,5.9903,5.9904,0,0,0,0,0,0,5.9713,5.9717,5.9764,5.9766,5.973,5.9748,5.9751,5.9763,5.9776,5.9777,5.9762,5.976,5.9787,5.979,5.9793,5.9839,5.98,5.9802,5.9803,5.9902,5.9903,5.9905,0,0,0,0,0,0,5.9712,5.9717,5.9763,5.9741,5.9747,5.9751,5.9764,5.9764,5.9772,5.9779,5.9779,5.977,5.9786,5.979,5.982,5.984,5.9803,5.9805,5.99,5.9902,5.9904,5.9931,0,0,0,0,0,0,5.971,5.9717,5.9731,5.9742,5.9748,5.9789,5.9765,5.9766,5.9776,5.9774,5.9786,5.9787,5.9785,5.9817,5.9822,5.9842,5.9807,5.9898,5.9901,5.9903,5.9929,5.9934,5.9939,0,0,0,0,0,5.9708,5.9737,5.9731,5.9737,5.9765,5.979,5.9794,5.9792,5.9778,5.9792,5.9797,5.9786,5.9837,5.982,5.9826,5.9847,5.9897,5.99,5.9903,5.9926,5.9933,5.9939,0,0,0,0,0,0,5.9727,5.9738,5.9732,5.9766,5.9777,5.9787,5.9805,5.9798,5.9814,5.9811,5.9807,5.981,5.9842,5.9847,5.9829,5.9885,5.9865,5.9869,5.9881,5.9887,5.9892,5.989,5.9808,0,0,0,0,0,5.9736,5.9755,5.9763,5.9792,5.9798,5.9801,5.9811,5.9809,5.9821,5.9825,5.9832,5.9844,5.9863,5.9875,5.9892,5.9929,5.9933,5.9947,5.9952,5.9956,5.996,5.9982,5.9989,5.9915,5.9915,5.9915,0,0,5.9753,5.9761,5.9773,5.9796,5.9805,5.9826,5.9805,5.9827,5.9843,5.9829,5.9858,5.9863,5.9876,5.9911,5.9926,5.9916,5.9981,5.996,5.9963,5.9965,5.9986,5.9993,5.9999,5.9917,5.9917,5.9916,0,0,5.9795,5.9802,5.9828,5.9838,5.9852,5.9854,5.986,5.9871,5.9875,5.9904,5.9895,5.9913,5.9945,5.9955,5.9965,6.0014,6.0005,6.0019,6.0046,6.0067,6.0073,6.0078,6.0097,6.0104,6.0023,6.0023,6.0023,0,5.9815,5.9845,5.9842,5.9866,5.9877,5.9866,5.9893,5.9902,5.9921,5.9929,5.9918,5.9959,5.9967,6.0005,6.0017,6.0024,6.0032,6.0018,6.0072,6.0078,6.0082,6.01,6.0107,6.0025,6.0025,6.0025,6.0024,0,5.987,5.9891,5.991,5.993,5.9943,5.9968,5.997,5.9984,5.998,5.9984,6.0015,6.0024,6.0044,6.0053,6.0049,6.0091,6.0084,6.0073,6.0052,6.0091,6.0108,6.0115,6.0027,6.0027,6.0026,6.0026,0,0,5.9924,5.9943,5.995,5.996,5.9975,5.9992,6.0017,6.0037,6.005,6.0064,6.0086,6.0114,6.0104,6.0115,6.0112,6.0131,6.0171,6.0118,6.0118,6.0129,6.022,6.0229,6.0237,6.0166,6.0167,6.0168,6.0219,0,5.9969,6.0013,6.0012,6.0053,6.0074,6.0065,6.0087,6.01,6.0104,6.0122,6.0127,6.0148,6.0132,6.0139,6.0157,6.0163,6.019,6.0159,6.0187,6.0188,6.0185,6.0245,6.0255,6.0302,6.0225,6.0226,6.0227,0,6.0026,6.0043,6.0087,6.0101,6.011,6.0129,6.0149,6.0167,6.0181,6.0183,6.0196,6.0191,6.0218,6.0197,6.0234,6.0213,6.0225,6.023,6.0231,6.0235,6.0211,6.0252,6.0317,6.0325,6.0237,6.0237,6.0236,0,6.0064,6.0097,6.0128,6.0137,6.0153,6.0168,6.0176,6.0188,6.0201,6.0218,6.0227,6.0247,6.0258,6.0274,6.0275,6.0259,6.0313,6.0292,6.0317,6.0317,6.0329,6.0328,6.0399,6.0335,6.0335,6.0335,6.0334,0,6.0114,6.0142,6.0146,6.0165,6.0196,6.0195,6.0226,6.0232,6.0244,6.0265,6.0258,6.0278,6.0278,6.0298,6.0299,6.0331,6.0336,6.0339,6.0339,6.034,6.034,6.0348,6.0346,6.0336,6.0336,6.0336,6.0335,0,6.0162,6.0166,6.0199,6.0213,6.0217,6.0239,6.0251,6.027,6.0274,6.0301,6.0307,6.0313,6.0337,6.034,6.0367,6.0368,6.0407,6.0403,6.0403,6.0402,6.0428,6.0426,6.0507,6.0518,6.0445,6.0446,6.0447,0,6.0195,6.0216,6.0232,6.0246,6.0255,6.0277,6.029,6.029,6.0305,6.0324,6.034,6.0364,6.0382,6.0421,6.0428,6.045,6.0447,6.0474,6.045,6.0452,6.045,6.0449,6.0452,6.0479,6.048,6.048,6.0481,0,6.0253,6.0254,6.0274,6.0295,6.0312,6.0328,6.0343,6.0355,6.0357,6.0374,6.0399,6.0413,6.0442,6.0466,6.0487,6.0496,6.049,6.0488,6.0496,6.0498,6.0497,6.0499,6.0416,6.0487,6.0486,6.0486,6.0485,6.0485,6.0295,6.0314,6.033,6.0352,6.0364,6.0379,6.0398,6.0405,6.0426,6.0449,6.0448,6.0476,6.0491,6.0519,6.0529,6.0551,6.0543,6.0552,6.0555,6.0558,6.0562,6.0493,6.0555,6.0555,6.0555,6.0555,6.0554,0,6.0355,6.0364,6.0385,6.0408,6.0426,6.0418,6.0435,6.0452,6.0476,6.0491,6.051,6.0539,6.0562,6.0572,6.0595,6.0611,6.0609,6.0617,6.0616,6.0619,6.0567,6.0559,6.0619,6.0619,6.0619,6.0619,6.0618,6.0618,6.0388,6.0421,6.0424,6.0463,6.0472,6.0499,6.051,6.0524,6.0536,6.0569,6.0589,6.0595,6.0608,6.0632,6.0654,6.0656,6.0666,6.0676,6.0677,6.0629,6.0622,6.0616,6.0609,6.0677,6.0677,6.0727,6.0727,6.0728]},{"header":{"parameterUnit":"m.s-1","parameterCategory":1,"la1":30.2991,"la2":30.254,"lo1":-89.0895,"lo2":-89.0444,"dy":0.0017,"dx":0.0017,"nx":28,"ny":28,"refTime":"2025-03-14T21:00:00:Z","depth":0,"parameterNumber":3,"parameterNumberName":"V-component_of_WINDS"},"data":[0,0,0,0,0,0,0,0,0,0,0,0,0,0,0,0,0,0,0,0,0,0,0,0,0,0,0,0,0,0,0,0,0,0,0,0,0,0,0,0,0,0,0,0,0,0,0,0,0,0,0,0,0,0,0,0,0,0,-0.2985,-0.2985,0,-0.2933,-0.2932,-0.2931,-0.2951,-0.2952,-0.2953,-0.2954,-0.2898,-0.2895,-0.2892,0,0,0,0,0,0,0,0,0,0,0,0,0,-0.3103,-0.3101,-0.2985,-0.2985,-0.2984,-0.2933,-0.2932,-0.2931,-0.2951,-0.2952,-0.2954,-0.2955,-0.2898,-0.2895,-0.2892,0,0,0,0,0,0,0,0,0,0,0,0,0,-0.3051,-0.31,-0.2986,-0.2988,-0.2987,-0.2933,-0.2932,-0.2931,-0.295,-0.2952,-0.2954,-0.2956,-0.2899,-0.2896,-0.2892,-0.2831,0,0,-0.288,-0.2878,0,0,0,0,0,0,0,0,-0.3054,-0.3047,-0.2988,-0.2987,-0.2987,-0.295,-0.2953,-0.2897,-0.295,-0.2964,-0.2954,-0.2956,-0.2913,-0.2908,-0.2895,-0.2829,-0.2826,-0.2879,-0.2877,-0.2875,-0.2874,0,0,0,0,0,0,0,-0.3058,-0.3049,-0.2964,-0.2987,-0.2986,-0.2991,-0.2986,-0.2942,-0.2929,-0.2963,-0.2964,-0.2958,-0.2914,-0.2898,-0.2893,-0.2825,-0.2879,-0.2876,-0.2873,-0.2872,-0.2711,-0.2709,0,0,0,0,0,0,-0.3062,-0.3052,-0.2966,-0.2963,-0.3026,-0.2988,-0.2982,-0.296,-0.293,-0.2927,-0.2957,-0.2959,-0.2904,-0.2898,-0.2891,-0.2821,-0.2875,-0.2872,-0.2869,-0.2713,-0.2711,-0.2708,0,0,0,0,0,0,-0.3064,-0.3054,-0.2968,-0.3008,-0.2997,-0.2984,-0.2959,-0.2958,-0.2943,-0.2925,-0.2923,-0.2943,-0.2905,-0.2897,-0.2847,-0.2819,-0.287,-0.2866,-0.2715,-0.2712,-0.2709,-0.2678,0,0,0,0,0,0,-0.3068,-0.3055,-0.3031,-0.3007,-0.2995,-0.2925,-0.2958,-0.2956,-0.2936,-0.2939,-0.2912,-0.2909,-0.2906,-0.2853,-0.2843,-0.2815,-0.2863,-0.2718,-0.2714,-0.271,-0.2681,-0.2674,-0.2668,0,0,0,0,0,-0.3072,-0.3023,-0.303,-0.3019,-0.2966,-0.2923,-0.2916,-0.2914,-0.2934,-0.2911,-0.29,-0.291,-0.2824,-0.2848,-0.2837,-0.2807,-0.2719,-0.2715,-0.2711,-0.2684,-0.2676,-0.2668,0,0,0,0,0,0,-0.3042,-0.302,-0.3027,-0.2969,-0.2948,-0.2926,-0.2896,-0.2905,-0.2876,-0.288,-0.2879,-0.2872,-0.2822,-0.2809,-0.2836,-0.2748,-0.2775,-0.2768,-0.2758,-0.275,-0.2744,-0.2748,-0.286,0,0,0,0,0,-0.3029,-0.2997,-0.2979,-0.2929,-0.2919,-0.291,-0.2891,-0.2892,-0.2869,-0.286,-0.2845,-0.2823,-0.2791,-0.277,-0.2739,-0.268,-0.2676,-0.2654,-0.2648,-0.2643,-0.2637,-0.2608,-0.2599,-0.2694,-0.2694,-0.2695,0,0,-0.3001,-0.2985,-0.2964,-0.2923,-0.2907,-0.2874,-0.2902,-0.2864,-0.284,-0.2854,-0.2807,-0.2796,-0.277,-0.2717,-0.2692,-0.2705,-0.261,-0.2637,-0.2633,-0.263,-0.2602,-0.2593,-0.2585,-0.2691,-0.2692,-0.2692,0,0,-0.2934,-0.2918,-0.2877,-0.2861,-0.2836,-0.2831,-0.2822,-0.2799,-0.2793,-0.2746,-0.2757,-0.2728,-0.2672,-0.2655,-0.2639,-0.257,-0.2579,-0.256,-0.2525,-0.2497,-0.2489,-0.2483,-0.246,-0.2452,-0.2554,-0.2554,-0.2554,0,-0.2902,-0.2853,-0.2854,-0.2817,-0.28,-0.2813,-0.2772,-0.2756,-0.2723,-0.2711,-0.2726,-0.2659,-0.2643,-0.2586,-0.257,-0.2556,-0.2546,-0.2562,-0.2491,-0.2484,-0.2478,-0.2456,-0.2447,-0.2552,-0.2552,-0.2552,-0.2553,0,-0.2816,-0.2782,-0.2752,-0.2722,-0.2701,-0.2662,-0.2658,-0.2637,-0.264,-0.2634,-0.2588,-0.2569,-0.2537,-0.2524,-0.2525,-0.2468,-0.2477,-0.2491,-0.2518,-0.2467,-0.2446,-0.2438,-0.2549,-0.255,-0.255,-0.2551,0,0,-0.2726,-0.27,-0.2689,-0.2677,-0.2653,-0.2627,-0.259,-0.256,-0.2543,-0.252,-0.249,-0.2444,-0.2459,-0.244,-0.2441,-0.2416,-0.2365,-0.2433,-0.2433,-0.2423,-0.2304,-0.2294,-0.2284,-0.2372,-0.237,-0.2369,-0.2307,0,-0.2659,-0.2594,-0.2596,-0.2536,-0.2506,-0.252,-0.2488,-0.247,-0.2464,-0.2438,-0.2431,-0.24,-0.242,-0.2409,-0.2385,-0.2377,-0.2342,-0.2381,-0.2344,-0.2343,-0.2351,-0.2273,-0.2262,-0.2204,-0.2299,-0.2297,-0.2296,0,-0.257,-0.2547,-0.2485,-0.2469,-0.2456,-0.2428,-0.2402,-0.2377,-0.2358,-0.2355,-0.2337,-0.2343,-0.2306,-0.2334,-0.2285,-0.2312,-0.2297,-0.2291,-0.2289,-0.2285,-0.2316,-0.2269,-0.2186,-0.2177,-0.2283,-0.2284,-0.2285,0,-0.2513,-0.2467,-0.2424,-0.2413,-0.2393,-0.2373,-0.2363,-0.2346,-0.2329,-0.2307,-0.2296,-0.2269,-0.2255,-0.2234,-0.2233,-0.2253,-0.2184,-0.2211,-0.2182,-0.2182,-0.2166,-0.2167,-0.208,-0.2155,-0.2155,-0.2156,-0.2156,0,-0.2438,-0.2399,-0.2399,-0.2373,-0.2332,-0.2335,-0.2293,-0.2286,-0.2271,-0.2245,-0.2255,-0.2229,-0.2229,-0.2204,-0.2203,-0.2163,-0.2156,-0.2154,-0.2154,-0.2153,-0.2154,-0.2144,-0.2148,-0.2153,-0.2154,-0.2154,-0.2155,0,-0.2367,-0.2365,-0.232,-0.2306,-0.2301,-0.2272,-0.2259,-0.2235,-0.2232,-0.2198,-0.219,-0.2184,-0.2155,-0.2152,-0.2117,-0.2117,-0.207,-0.2074,-0.2077,-0.2078,-0.2049,-0.2053,-0.1953,-0.1941,-0.2023,-0.2022,-0.2022,0,-0.2319,-0.2291,-0.2274,-0.2258,-0.2248,-0.2221,-0.2205,-0.2207,-0.219,-0.2169,-0.2147,-0.212,-0.2098,-0.2051,-0.2043,-0.2018,-0.2022,-0.1989,-0.2018,-0.202,-0.2024,-0.2026,-0.2024,-0.1984,-0.1983,-0.1982,-0.1981,0,-0.2235,-0.2237,-0.2213,-0.219,-0.2171,-0.2153,-0.2135,-0.2121,-0.2122,-0.2102,-0.2074,-0.2057,-0.2024,-0.1997,-0.1973,-0.1963,-0.1973,-0.1973,-0.1965,-0.1964,-0.1968,-0.1967,-0.2063,-0.1975,-0.1975,-0.1976,-0.1976,-0.1976,-0.2176,-0.2152,-0.2138,-0.2113,-0.2101,-0.2085,-0.2063,-0.2058,-0.2034,-0.2008,-0.2011,-0.198,-0.1965,-0.1934,-0.1923,-0.1899,-0.191,-0.1898,-0.1895,-0.1893,-0.1891,-0.1971,-0.1894,-0.1895,-0.1895,-0.1895,-0.1895,0,-0.2094,-0.2087,-0.2063,-0.204,-0.2021,-0.2033,-0.2016,-0.1998,-0.1971,-0.1957,-0.1936,-0.1905,-0.188,-0.1872,-0.1847,-0.183,-0.1834,-0.1824,-0.1825,-0.1824,-0.1881,-0.1891,-0.1821,-0.1821,-0.1821,-0.1821,-0.1821,-0.1821,-0.2049,-0.2012,-0.2012,-0.1969,-0.1961,-0.1932,-0.1922,-0.1908,-0.1897,-0.1862,-0.1842,-0.1837,-0.1826,-0.1802,-0.178,-0.1778,-0.1769,-0.1758,-0.1758,-0.1812,-0.1819,-0.1826,-0.1836,-0.1755,-0.1755,-0.1702,-0.1702,-0.1702]}]]